Regional Weather Roundup
Issued by NWS Bismarck, ND

Home | Current Version | Previous Version | Text Only | Print | Product List | Glossary On
Versions: 1 2 3 4 5 6 7 8 9 10 11 12 13 14 15 16 17 18 19 20 21 22 23 24 25 26 27 28 29 30 31 32 33 34 35 36 37 38 39 40 41 42 43 44 45 46 47 48 49 50
000
ASUS43 KBIS 232202
RWRBIS

NWR BROADCAST TEXT
NATIONAL WEATHER SERVICE BISMARCK ND
500 PM CDT WED MAY 23 2018

NOTE: "FAIR" INDICATES FEW OR NO CLOUDS BELOW 12,000 FEET WITH NO
SIGNIFICANT WEATHER AND/OR OBSTRUCTIONS TO VISIBILITY.


CITY           SKY/WX    TMP DP  RH WIND       PRES   REMARKS
WILLISTON      CLOUDY    70  61  73 E7        29.85F
MINOT          CLOUDY    82  58  43 SE15G28   29.85F
MINOT AFB      CLOUDY    81  58  44 SE16G23   29.83F
BISMARCK       CLOUDY    79  65  62 SE14      29.85F
DICKINSON      PTSUNNY   76  60  57 SE12      29.83F
GARRISON         N/A     79  60  52 S16       29.85F
HETTINGER ARPT SUNNY     75  59  57 SE12      29.86F
JAMESTOWN      PTSUNNY   75  67  76 SE13G24   29.92F
CARRINGTON     FAIR      81  61  50 S22G31    29.93S
HAZEN          CLOUDY    77  63  61 SE16G22   29.87F
LINTON           N/A    N/A N/A N/A S17       29.87S
MANDAN         MOCLDY    79  68  69 SE14      29.86F
OAKES            N/A     81  68  65 SE26      29.93S
STANLEY          N/A     75  57  53 S14       29.90F HAZE
TIOGA          CLOUDY    70  59  68 SE7       29.89F
WATFORD CITY   MOCLDY    77  61  57 SE12G20   29.83F
$$

CITY           SKY/WX    TMP DP  RH WIND       PRES   REMARKS
GRAND FORKS    PTSUNNY   83  62  49 S15       29.93F
GRAND FORKS AF FAIR      84  62  47 SE17      29.93F
DEVILS LAKE    FAIR      80  60  50 SE13      29.92F
FARGO          FAIR      78  61  55 S21       29.97S
CANDO          FAIR      81  57  44 S17G24    29.94F
CAVALIER         N/A     84  57  39 S16G22    29.92F
GRAFTON        FAIR      81  61  50 S18       29.95F
GWINNER          N/A     79  64  61 SE24      29.94S
LANGDON        FAIR      82  59  44 S21G26    29.96S
ROLLA          FAIR      82  55  39 SE22G30   29.93F
WALHALLA       FAIR      84  57  39 SE17G25   29.92F
$$

CITY           SKY/WX    TMP DP  RH WIND       PRES   REMARKS
ABERDEEN       TSTM      81  69  67 SE23G30   29.87F
MOBRIDGE       MOSUNNY   83  68  60 S13       29.83S
BUFFALO          N/A     79  54  41 SW9       29.78F
RAPID CITY     MOSUNNY   78  60  53 SE14      29.88S
GLASGOW        CLOUDY    68  59  73 NE12      29.83F
SIDNEY         PTSUNNY   75  61  61 SE10      29.82F
WOLF POINT     CLOUDY    70  59  68 NE14      29.83F
GLENDIVE       MOSUNNY   74  61  63 E7        29.81F
MILES CITY     MOSUNNY   74  57  55 E3        29.78F
BAKER          SUNNY     78  57  48 SE13      29.82F
$$

CITY           SKY/WX    TMP DP  RH WIND       PRES   REMARKS
BILLINGS       TSTM      61  59  93 W9        29.86R VSB 1
GREAT FALLS    PTSUNNY   68  50  52 SE7       29.87F
REGINA         LGT RAIN  81  52  36 SE24G41   29.85S
$$





USA.gov is the U.S. government's official web portal to all federal, state and local government web resources and services.